www.pogodaiklimat.ru
Время
и дата
09:04 26.10
09:54 26.10
10:54 26.10
11:20 26.10
11:51 26.10
11:54 26.10
12:06 26.10
12:54 26.10
13:31 26.10
13:54 26.10
14:54 26.10
15:20 26.10
15:54 26.10
16:54 26.10
17:54 26.10
18:54 26.10
19:54 26.10
20:54 26.10
21:54 26.10
22:54 26.10
23:54 26.10
00:54 27.10
01:54 27.10
02:54 27.10
03:54 27.10
04:54 27.10
05:54 27.10
06:54 27.10
07:54 27.10
08:54 27.10
09:54 27.10
10:54 27.10
11:54 27.10
12:54 27.10
13:54 27.10
14:54 27.10
15:54 27.10
16:54 27.10
17:54 27.10
18:54 27.10
19:54 27.10
20:54 27.10
21:54 27.10
22:54 27.10
23:54 27.10
00:54 28.10
01:54 28.10
02:54 28.10
Ветер
(напр.,м/с)
Видим. Явления Облачность Т
(С)
Тd
(С)
f
(%)
Тe
(С)
Тes
(С)
Комфортность P
(гПа)
Po
(гПа)
Тmin
(С)
Tmax
(С)
R
(мм)
R24
(мм)
S
(см)
ЮВ 2 2 км слабый снег, дымка 10/10 420 м -13.9 -16.7 79 -22 -22 813.5
ЮВ 2 2 км слабый снег, дымка 10/10 330 м -13.3 -16.1 79 -22 -22 1032.5 813.5
ЮВ 2 2 км слабый снег, дымка 10/10 330 м -13.3 -16.1 79 -21 -21 1032.6 813.5 -14.4 -13.3 0.5
ЮВ 2 1 км слабый снег, дымка 10/10 330 м -13.3 -16.1 79 -21 -21 813.2
Ю 2 2 км слабый снег 10/10 480 м -13.0 -16.0 78 -21 -21 812.7
Ю 2 3 км слабый снег 10/10 480 м -12.8 -16.1 76 -21 -21 1031.5 812.7
ЮВ 2 5 км слабый снег 8/8 630 м -12.8 -15.6 79 -20 -19 812.2
ЮВ 2 5 км дымка 8/8 330 м -12.8 -15.6 79 -20 -19 1030.4 811.9
В 2 5 км дымка 8/8 330 м -12.8 -16.1 76 -20 -19 811.6
ЮВ 2 3 км слабый снег, дымка 10/10 330 м -12.8 -15.6 79 -21 -21 1030.5 811.9 0.5
В 1 6 км слабый снег, дымка 8/8 210 м -13.3 -16.1 79 -20 -19 1030.0 811.4
ЮВ 1 8 км дымка 8/5 210 м
[Ci]
-13.3 -16.1 79 -20 -19 811.6
В 1 6 км дымка 5/5 210 м
[Ci]
-13.3 -16.1 79 -20 -18 1030.5 811.9
Ю 1 16 км 2/2 210 м -14.4 -17.2 79 -21 -20 1030.8 811.9 -14.4 -12.2 0.5
Ю 1 16 км 2/2 450 м -14.4 -17.2 79 -19 -19 1030.7 811.6
штиль 0 16 км 2/0 3300 м
[Ac]
-15.6 -18.3 80 -16 -16 1032.5 812.7
С 1 16 км 2/0 3000 м
[Ac]
-15.0 -17.2 83 -20 -20 1031.5 812.2
З 1 16 км 5/0 5400 м
[Ac]
-15.0 -17.8 79 -20 -20 1032.4 812.7
СЗ 2 16 км 8/0 5100 м
[Ac]
-13.3 -16.1 79 -21 -21 1030.5 811.9
штиль 0 16 км 5/0 4800 м
[Ac]
-14.4 -17.2 79 -14 -14 1031.1 812.2 -16.1 -11.7
В 1 16 км 5/0 6000 м
[Ac]
-16.1 -18.3 83 -23 -23 1031.6 812.2
СЗ 2 16 км 5/0 6600 м
[Ci]
-12.2 -16.7 69 -19 -19 1029.1 811.1
штиль 0 16 км 5/0 6600 м
[Ci]
-12.8 -17.2 70 -13 -13 1029.8 811.4
С 2 16 км 5/0 6600 м
[Ci]
-7.8 -17.8 44 -14 -14 1027.6 810.8
ЮЗ 1 16 км 2/0 6600 м
[Ci]
-11.7 -17.8 61 -16 -16 1029.2 811.4
СВ 1 16 км ясно -11.7 -18.3 58 -16 -16 1030.0 811.6 -17.2 -6.7 1.0
штиль 0 16 км 2/0 3600 м
[Ac Ci]
-10.6 -18.9 50 -11 -11 1030.6 812.4
С 2 16 км 5/0 3600 м
[Ac Ci]
-10.6 -18.9 50 -17 -17 1031.1 812.4
СЗ 1 16 км 2/0 6600 м
[Ci]
-6.1 -15.0 49 -11 -11 1029.7 812.4
С 3 16 км 2/0 6600 м
[Ci]
+0.6 -16.7 26 -5 -4 1027.2 811.9
Ю 2 16 км 2/0 6600 м
[Ci]
-1.1 -9.4 53 -6 -4 1027.7 812.2
ЮВ 1 16 км 2/0 6600 м
[Ci]
-1.1 -8.3 58 -5 -1 1028.0 812.2 -13.3 +4.4
В 1 16 км 2/2 1800 м
[Ci]
-0.6 -10.0 49 -5 0 1027.7 811.6
штиль 0 16 км 2/2 1800 м
[Ci]
+1.1 -13.3 33 +1 +10 опасность
простуды
1024.9 810.8
ЮВ 1 16 км 2/0 6600 м
[Ci]
+1.1 -11.7 38 -2 +4 1023.9 810.0
ЮВ 1 16 км 2/0 6600 м
[Ci]
+1.1 -10.0 43 -2 +4 1022.6 810.0
СВ 1 16 км 2/0 2400 м
[Ac]
+2.2 -10.0 40 0 +3 1023.0 809.7
СВ 1 16 км 2/0 2400 м
[Ac]
+1.1 -11.1 40 -1 -1 1023.2 809.7 -1.7 +2.8
С 1 16 км 8/0 2400 м
[Ac]
-1.7 -9.4 56 -6 -6 1024.7 810.3
С 1 16 км 5/0 2550 м
[Ac]
-1.1 -8.3 58 -5 -5 1024.9 810.8
С 1 16 км 8/0 2550 м
[Ac]
+0.6 -8.3 51 -3 -3 1023.3 810.8
штиль 0 16 км 2/0 2550 м
[Ac]
0.0 -8.9 51 0 0 1021.3 810.8
С 1 16 км 2/0 2550 м
[Ac]
0.0 -10.0 47 -3 -3 1022.4 811.1
С 1 16 км 2/0 2550 м
[Ac]
-1.7 -10.0 53 -6 -6 1022.4 810.8 -2.2 +1.1
С 2 16 км 2/0 2400 м
[Ac]
-1.7 -11.1 49 -7 -7 1022.1 810.5
С 2 16 км 2/0 2400 м
[Ac]
+1.1 -11.1 40 -4 -4 1019.7 809.7
СЗ 1 16 км 2/0 2400 м
[Ac]
+1.1 -11.1 40 -2 -2 1019.8 809.7
С 2 16 км 2/0 2400 м
[Ac]
+0.6 -11.1 41 -4 -4 1019.3 809.5
Местоположение метеостанции Colorado Springs Airport: широта 38.8095 долгота -104.6887 высота над уровнем моря 1884 м.
В архиве по умолчанию представлена погода в Колорадо Спрингс за последние 1-2 суток. Обновление информации о фактической погоде в базе происходит ежечасно! Архивные данные за месяц целиком и за предыдущие месяцы Вы можете получить, выбрав интересующий диапазон дат из раскрывающегося списка и нажав кнопку "Ввод!".
Внимание! Архив погоды МЕТАР в базе сайта по станциям, не включенным в климатический монитор, хранится не более 60 дней. Нет смысла пытаться выбрать более раннюю дату.
*Определитесь, кто Вы:
Внимание! Время в таблицах - местное (без учета летнего времени). Для получения всемирного времени необходимо вычесть поправку, которая равна -7 ч.
Смотрите также архив погоды в соседних городах и на ближайших метеорологических станциях:
Партнеры нашего сайта:      
Пояснения к столбцам:
  • Ветер - указаны скорость ветра в м/с - средняя за 10 мин, порывы в срок и между сроками (в фигурных скобках) и направление, откуда дует ветер: С - северный,
  • СВ - северо-восточный, В - восточный, ЮВ - юго-восточный, Ю - южный, ЮЗ - юго-западный, З - западный, СЗ - северо-западный.
  • Видимость - горизонтальная дальность видимости в метрах или километрах. При видимости от 1 до 10 км при отсутствии осадков обычно наблюдается дымка, при ухудшении видимости до 1 км и менее - туман. В сухую погоду видимость может ухудшаться дымом, пылью или мглою.
  • Явления - указаны атмосферные явления, наблюдавшиеся в срок или в последний час перед сроком; фигурными скобками обозначены явления, наблюдавшиеся между сроками (за 1-3 часа до срока); квадратными скобками обозначены град или гололедные отложения с указанием их диаметра в мм.
  • Облачность - указаны через наклонную черту общая и нижняя облачность в баллах и высота нижней границы облаков в метрах; квадратными скобками обозначены формы облаков: Ci - перистые, Cs - перисто-слоистые, Cc - перисто-кучевые, Ac - высококучевые, As - высокослоистые, Sc - слоисто-кучевые, Ns - слоисто-дождевые, Cu - кучевые, Cb - кучево-дождевые. Подробнее классификацию облаков см. в Атласе облаков (PDF).
  • T - Температура воздуха - температура, измеренная на высоте 2 м над землей.
  • Td - Температура точки росы - температура, при понижении до которой содержащийся в воздухе водяной пар достигнет насыщения.
  • f - Относительная влажность воздуха - влажноcть воздуха, измеренная на высоте 2 м над землей.
  • Te - Эффективная температура - температура, которую ощущает одетый по сезону человек в тени. Характеристика душности погоды. При расчете учитывается влияние влажности воздуха и скорости ветра на теплоощущения человека.
  • Tes - Эффективная температура на солнце - температура, которую ощущает человек, с поправкой на солнечный нагрев. Характеристика знойности погоды. Зависит от высоты солнца над горизонтом, облачности и скорости ветра. Ночью, в пасмурную погоду, а также при ветре 12 м/с и более поправка равна нулю.
  • P - Атмосферное давление - приведенное к уровню моря атмосферное давление.
  • Po - Атмосферное давление - измеренное на уровне метеостанции атмосферное давление.
  • Tmin - Минимальная температура - минимум температуры воздуха на высоте 2 м над землей.
  • Tmax - Максимальная температура - максимум температуры воздуха на высоте 2 м над землей.
  • R - Количество осадков - Количество выпавших осадков за период времени, мм. При наведении курсора мыши на число - период времени, за который выпало указанное количество осадков.
  • R24 - Количество осадков - Количество выпавших осадков за 24 часа, мм.
  • S - Снежный покров - Высота снежного покрова, см. При наведении курсора мыши на число - состояние снежного покрова и степень покрытия местности в баллах.